Location: Orange Harbor Mobile Home Park
(26.6923°N, 81.7937°W)
Time: 23:08:55
(UTC+00:00)

Cosmos 2360 Rocket - Pass Details

Date: 19 September 2020
Orbit: 835 x 844 km, 71.0° (Epoch: 25 October)

Event Time Altitude Azimuth Distance (km) Brightness Sun altitude
Rises 09:03:17 0° 164° (SSE) 3,383 5.3 -29.7°
Reaches altitude 10° 09:06:15 10° 149° (SSE) 2,453 4.7 -29.0°
Maximum altitude 09:10:26 22° 101° (E) 1,777 4.4 -28.1°
Drops below altitude 10° 09:14:37 10° 53° (NE) 2,461 5.5 -27.2°
Sets 09:17:35 0° 38° (NE) 3,398 6.2 -26.6°
